Location: Tamazert
(32.6352°N, 5.2072°W)
Time: 06:05:46
(UTC+00:00)

Vanguard 2 - Pass Details

Date: 05 October 2022
Orbit: 553 x 2933 km, 32.9° (Epoch: 26 November)

Event Time Altitude Azimuth Distance (km) Brightness Sun altitude
Rises 17:43:02 0° 285° (WNW) 5,972 13.6 2.8°
Reaches altitude 10° 17:46:39 10° 282° (WNW) 5,197 13.4 2.1°
Maximum altitude 18:02:41 62° 207° (SSW) 3,173 10.9 -1.3°
Drops below altitude 10° 18:19:34 10° 132° (SE) 5,426 11.4 -4.8°
Sets 18:23:28 0° 129° (SE) 6,236 11.7 -5.7°
